Regional Weather Roundup
Issued by NWS

Home | Current Version | Previous Version | Graphics & Text | Print | Product List | Glossary Off
Versions: 1 2 3 4 5 6 7 8 9 10 11 12 13 14 15 16 17 18 19 20 21 22 23 24 25 26 27 28 29 30 31 32 33 34 35 36 37 38 39 40 41 42 43 44 45 46 47 48 49 50

000
ASUS43 KTOP 230959
RWRKS

WEATHER ROUNDUP FOR KANSAS
NATIONAL WEATHER SERVICE GOODLAND KS
400 AM CST FRI FEB 23 2018

NOTE:  "FAIR" INDICATES FEW OR NO CLOUDS BELOW 12,000 FEET WITH NO
SIGNIFICANT WEATHER AND/OR OBSTRUCTIONS TO VISIBILITY.

KSZ001>006-013>018-027>032-041>047-231100-
NORTHWEST KANSAS

CITY           SKY/WX    TMP DP  RH WIND       PRES   REMARKS
GOODLAND       FOG       21  20  96 W8        30.11F VSB 3/4
HAYS           CLEAR     24  23  96 N5        30.20F
HILL CITY      FOG       23  23 100 CALM      30.21R VSB 1/2
RUSSELL        CLOUDY    29  28  96 N5        30.20S
$$

KSZ061>065-074>080-084>089-231100-
SOUTHWEST KANSAS

CITY           SKY/WX    TMP DP  RH WIND       PRES   REMARKS
DODGE CITY     FOG       30  29  96 NE6       30.14F VSB 1/2
GARDEN CITY    FOG       27  27 100 E12       30.13S VSB 1/2 WCI  17
GREAT BEND     CLOUDY    29  27  92 N6        30.19F
LIBERAL        CLOUDY    21  18  88 NW10      30.11F WCI  10
$$

KSZ066>073-081>083-090>101-231100-
SOUTHEAST KANSAS

CITY           SKY/WX    TMP DP  RH WIND       PRES   REMARKS
CHANUTE        CLOUDY    35  34  96 W3        30.23S
COFFEYVILLE    CLOUDY    36  36 100 W3        30.23S
HUTCHINSON     CLOUDY    32  31  96 N7        30.20S FOG
MEDICINE LODGE   N/A     31  31 100 NE5       30.19S
NEWTON         CLOUDY    31  30  96 NW7       30.21S FOG
PARSONS        CLOUDY    35  35 100 W3        30.24S
WICHITA INTL   CLOUDY    32  32 100 NW3       30.21S FOG
WICHITA JABRA  CLOUDY    32  32 100 NW3       30.21S FOG
WICHITA MCCONL CLOUDY    32  32  99 N3        30.21R
WINFIELD       CLOUDY    32  32 100 CALM      30.23S FOG
$$

KSZ007>012-019>026-033>040-048>060-102>105-231100-
NORTHEAST KANSAS

CITY           SKY/WX    TMP DP  RH WIND       PRES   REMARKS
CONCORDIA      MOCLDY    27  26  96 NW9       30.21S
EMPORIA        CLOUDY    32  31  96 W3        30.21S FOG
LAWRENCE       CLOUDY    33  33 100 W7        30.22S
MANHATTAN      CLOUDY    33  31  92 VRB3      30.22S
OLATHE IND     CLOUDY    32  32 100 W9        30.21S
OLATHE EXE     CLOUDY    32  32 100 W9        30.20S
SALINA         CLOUDY    32  31  96 NW5       30.23S
TOPEKA BILLARD CLOUDY    33  33 100 VRB3      30.21S
TOPEKA FORBES  CLOUDY    34  32  92 NW6       30.21R
$$




USA.gov is the U.S. government's official web portal to all federal, state and local government web resources and services.